Time,TemperatureF,DewpointF,PressureIn,WindDirection,WindDirectionDegrees,WindSpeedMPH,WindSpeedGustMPH,Humidity,HourlyPrecipIn,Conditions,Clouds,dailyrainin,SoftwareType,DateUTC
2013-04-10 00:01:00,32.2,13.3,23.27,NW,324,0.0,0.0,45,0.00,,,0.00,WeatherTracker,2013-04-10 07:01:00,
2013-04-10 00:11:00,32.4,12.9,23.27,NNW,344,0.0,0.0,44,0.00,,,0.00,WeatherTracker,2013-04-10 07:11:00,
2013-04-10 00:21:00,32.4,12.4,23.27,West,274,0.0,0.0,43,0.00,,,0.00,WeatherTracker,2013-04-10 07:21:00,
2013-04-10 00:31:00,32.7,12.7,23.27,NW,306,0.0,0.0,43,0.00,,,0.00,WeatherTracker,2013-04-10 07:31:00,
2013-04-10 00:36:00,32.5,12.6,23.27,NW,306,0.0,0.0,43,0.00,,,0.00,WeatherTracker,2013-04-10 07:36:00,
2013-04-10 00:41:00,32.5,12.6,23.27,NW,306,0.0,0.0,43,0.00,,,0.00,WeatherTracker,2013-04-10 07:41:00,
2013-04-10 00:51:00,32.4,12.4,23.27,NNW,336,0.0,0.0,43,0.00,,,0.00,WeatherTracker,2013-04-10 07:51:00,
2013-04-10 00:56:00,32.5,12.6,23.27,WNW,298,0.0,2.0,43,0.00,,,0.00,WeatherTracker,2013-04-10 07:56:00,
2013-04-10 01:01:00,32.5,12.6,23.27,East,79,2.0,3.0,43,0.00,,,0.00,WeatherTracker,2013-04-10 08:01:00,
2013-04-10 01:11:00,32.4,12.4,23.27,North,357,0.0,0.0,43,0.00,,,0.00,WeatherTracker,2013-04-10 08:11:00,
2013-04-10 01:21:00,32.7,13.2,23.27,East,79,0.0,0.0,44,0.00,,,0.00,WeatherTracker,2013-04-10 08:21:00,
2013-04-10 01:26:00,32.7,13.2,23.27,ENE,59,0.0,0.0,44,0.00,,,0.00,WeatherTracker,2013-04-10 08:26:00,
2013-04-10 01:31:00,33.1,13.6,23.27,East,80,0.0,0.0,44,0.00,,,0.00,WeatherTracker,2013-04-10 08:31:00,
2013-04-10 01:36:00,33.1,13.6,23.27,East,80,0.0,0.0,44,0.00,,,0.00,WeatherTracker,2013-04-10 08:36:00,
2013-04-10 01:46:00,33.1,16.5,23.27,SE,141,0.0,2.0,50,0.00,,,0.00,WeatherTracker,2013-04-10 08:46:00,
2013-04-10 01:56:00,33.1,16.9,23.27,NW,314,3.0,5.0,51,0.00,,,0.00,WeatherTracker,2013-04-10 08:56:00,
2013-04-10 02:06:00,33.3,17.6,23.27,NW,305,0.0,0.0,52,0.00,,,0.00,WeatherTracker,2013-04-10 09:06:00,
2013-04-10 02:16:00,33.3,17.1,23.27,NNW,328,3.0,0.0,51,0.00,,,0.00,WeatherTracker,2013-04-10 09:16:00,
2013-04-10 02:21:00,33.3,17.6,23.27,NW,313,0.0,0.0,52,0.00,,,0.00,WeatherTracker,2013-04-10 09:21:00,
2013-04-10 02:31:00,33.1,17.4,23.27,NNW,341,3.0,3.0,52,0.00,,,0.00,WeatherTracker,2013-04-10 09:31:00,
2013-04-10 02:41:00,32.7,17.5,23.27,West,276,2.0,3.0,53,0.00,,,0.00,WeatherTracker,2013-04-10 09:41:00,
2013-04-10 02:46:00,32.7,17.5,23.27,North,353,0.0,0.0,53,0.00,,,0.00,WeatherTracker,2013-04-10 09:46:00,
2013-04-10 02:51:00,32.5,17.3,23.27,North,3,2.0,4.0,53,0.00,,,0.00,WeatherTracker,2013-04-10 09:51:00,
2013-04-10 03:01:00,32.5,17.8,23.27,NNW,333,0.0,0.0,54,0.00,,,0.00,WeatherTracker,2013-04-10 10:01:00,
2013-04-10 03:11:00,32.5,17.8,23.27,SE,137,0.0,4.0,54,0.00,,,0.00,WeatherTracker,2013-04-10 10:11:00,
2013-04-10 03:16:00,32.5,17.8,23.27,NNW,342,3.0,3.0,54,0.00,,,0.00,WeatherTracker,2013-04-10 10:16:00,
2013-04-10 03:26:00,32.2,17.0,23.27,North,4,0.0,0.0,53,0.00,,,0.00,WeatherTracker,2013-04-10 10:26:00,
2013-04-10 03:31:00,32.2,17.4,23.27,NNE,18,0.0,0.0,54,0.00,,,0.00,WeatherTracker,2013-04-10 10:31:00,
2013-04-10 03:41:00,32.0,16.8,23.27,SW,214,0.0,0.0,53,0.00,,,0.00,WeatherTracker,2013-04-10 10:41:00,
2013-04-10 03:51:00,31.6,16.9,23.27,WNW,292,0.0,0.0,54,0.00,,,0.00,WeatherTracker,2013-04-10 10:51:00,
2013-04-10 04:01:00,31.5,16.8,23.30,NNE,19,0.0,3.0,54,0.00,,,0.00,WeatherTracker,2013-04-10 11:01:00,
2013-04-10 04:06:00,31.1,16.0,23.30,NNE,12,3.0,0.0,53,0.00,,,0.00,WeatherTracker,2013-04-10 11:06:00,
2013-04-10 04:11:00,30.9,15.8,23.30,ESE,103,2.0,0.0,53,0.00,,,0.00,WeatherTracker,2013-04-10 11:11:00,
2013-04-10 04:16:00,30.7,15.7,23.27,NNW,333,3.0,3.0,53,0.00,,,0.00,WeatherTracker,2013-04-10 11:16:00,
2013-04-10 04:26:00,30.7,15.2,23.27,NNW,346,0.0,0.0,52,0.00,,,0.00,WeatherTracker,2013-04-10 11:26:00,
2013-04-10 04:31:00,30.7,14.8,23.27,NNW,341,0.0,0.0,51,0.00,,,0.00,WeatherTracker,2013-04-10 11:31:00,
2013-04-10 04:41:00,30.4,14.0,23.27,South,170,0.0,0.0,50,0.00,,,0.00,WeatherTracker,2013-04-10 11:41:00,
2013-04-10 04:46:00,30.2,13.8,23.27,SSE,167,0.0,0.0,50,0.00,,,0.00,WeatherTracker,2013-04-10 11:46:00,
2013-04-10 04:51:00,30.2,13.4,23.27,NNW,348,0.0,0.0,49,0.00,,,0.00,WeatherTracker,2013-04-10 11:51:00,
2013-04-10 04:56:00,30.0,13.2,23.27,South,171,0.0,4.0,49,0.00,,,0.00,WeatherTracker,2013-04-10 11:56:00,
2013-04-10 05:01:00,30.0,13.7,23.30,North,357,2.0,0.0,50,0.00,,,0.00,WeatherTracker,2013-04-10 12:01:00,
2013-04-10 05:11:00,29.8,13.0,23.30,WNW,291,0.0,0.0,49,0.00,,,0.00,WeatherTracker,2013-04-10 12:11:00,
2013-04-10 05:16:00,29.8,12.6,23.30,East,82,0.0,0.0,48,0.00,,,0.00,WeatherTracker,2013-04-10 12:16:00,
2013-04-10 05:22:00,30.0,12.7,23.30,NW,325,0.0,0.0,48,0.00,,,0.00,WeatherTracker,2013-04-10 12:22:00,
2013-04-10 05:31:00,30.0,12.3,23.30,NNW,331,0.0,0.0,47,0.00,,,0.00,WeatherTracker,2013-04-10 12:31:00,
2013-04-10 05:36:00,30.0,11.8,23.30,NNW,331,0.0,0.0,46,0.00,,,0.00,WeatherTracker,2013-04-10 12:36:00,
2013-04-10 05:41:00,30.0,12.3,23.30,NW,308,0.0,0.0,47,0.00,,,0.00,WeatherTracker,2013-04-10 12:41:00,
2013-04-10 05:51:00,29.8,11.1,23.30,SE,127,0.0,0.0,45,0.00,,,0.00,WeatherTracker,2013-04-10 12:51:00,
2013-04-10 06:01:00,29.8,11.1,23.30,NNW,337,0.0,0.0,45,0.00,,,0.00,WeatherTracker,2013-04-10 13:01:00,
2013-04-10 06:06:00,29.8,11.6,23.30,NNW,333,0.0,0.0,46,0.00,,,0.00,WeatherTracker,2013-04-10 13:06:00,
2013-04-10 06:16:00,29.8,11.1,23.33,NNW,332,0.0,0.0,45,0.00,,,0.00,WeatherTracker,2013-04-10 13:16:00,
2013-04-10 06:22:00,29.8,11.1,23.33,NNW,332,0.0,0.0,45,0.00,,,0.00,WeatherTracker,2013-04-10 13:22:00,
2013-04-10 06:31:00,30.0,11.3,23.33,NNW,333,0.0,0.0,45,0.00,,,0.00,WeatherTracker,2013-04-10 13:31:00,
2013-04-10 06:36:00,30.0,11.3,23.33,NNW,332,0.0,0.0,45,0.00,,,0.00,WeatherTracker,2013-04-10 13:36:00,
2013-04-10 06:46:00,30.4,11.1,23.33,WSW,247,0.0,0.0,44,0.00,,,0.00,WeatherTracker,2013-04-10 13:46:00,
2013-04-10 06:51:00,30.2,10.9,23.33,WSW,247,0.0,0.0,44,0.00,,,0.00,WeatherTracker,2013-04-10 13:51:00,
2013-04-10 06:56:00,30.2,10.9,23.33,WSW,247,0.0,0.0,44,0.00,,,0.00,WeatherTracker,2013-04-10 13:56:00,
2013-04-10 07:06:00,30.2,10.9,23.33,West,266,0.0,0.0,44,0.00,,,0.00,WeatherTracker,2013-04-10 14:06:00,
2013-04-10 07:11:00,30.6,11.3,23.33,South,187,0.0,0.0,44,0.00,,,0.00,WeatherTracker,2013-04-10 14:11:00,
2013-04-10 07:21:00,31.1,11.2,23.33,ESE,111,0.0,0.0,43,0.00,,,0.00,WeatherTracker,2013-04-10 14:21:00,
2013-04-10 07:26:00,31.3,11.4,23.33,North,11,0.0,3.0,43,0.00,,,0.00,WeatherTracker,2013-04-10 14:26:00,
2013-04-10 07:32:00,31.6,11.7,23.33,North,5,0.0,0.0,43,0.00,,,0.00,WeatherTracker,2013-04-10 14:32:00,
2013-04-10 07:41:00,32.0,11.5,23.33,North,0,0.0,3.0,42,0.00,,,0.00,WeatherTracker,2013-04-10 14:41:00,
2013-04-10 07:46:00,32.0,11.5,23.33,SE,145,2.0,3.0,42,0.00,,,0.00,WeatherTracker,2013-04-10 14:46:00,
2013-04-10 07:51:00,32.2,11.7,23.33,WNW,293,2.0,5.0,42,0.00,,,0.00,WeatherTracker,2013-04-10 14:51:00,
2013-04-10 07:56:00,32.2,11.7,23.33,North,5,0.0,0.0,42,0.00,,,0.00,WeatherTracker,2013-04-10 14:56:00,
2013-04-10 08:01:00,32.0,11.5,23.36,ESE,123,0.0,0.0,42,0.00,,,0.00,WeatherTracker,2013-04-10 15:01:00,
2013-04-10 08:06:00,32.2,11.7,23.36,North,8,0.0,0.0,42,0.00,,,0.00,WeatherTracker,2013-04-10 15:06:00,
2013-04-10 08:16:00,32.7,11.6,23.36,ESE,119,3.0,0.0,41,0.00,,,0.00,WeatherTracker,2013-04-10 15:16:00,
2013-04-10 08:21:00,32.7,11.6,23.36,NW,325,3.0,4.0,41,0.00,,,0.00,WeatherTracker,2013-04-10 15:21:00,
2013-04-10 08:26:00,32.9,11.8,23.36,WNW,292,3.0,3.0,41,0.00,,,0.00,WeatherTracker,2013-04-10 15:26:00,
2013-04-10 08:31:00,33.1,12.0,23.36,East,92,2.0,6.0,41,0.00,,,0.00,WeatherTracker,2013-04-10 15:31:00,
2013-04-10 08:41:00,32.9,11.8,23.36,ESE,110,3.0,3.0,41,0.00,,,0.00,WeatherTracker,2013-04-10 15:41:00,
2013-04-10 08:46:00,33.3,11.6,23.36,North,0,0.0,4.0,40,0.00,,,0.00,WeatherTracker,2013-04-10 15:46:00,
2013-04-10 08:51:00,33.6,11.9,23.36,NNW,333,0.0,0.0,40,0.00,,,0.00,WeatherTracker,2013-04-10 15:51:00,
2013-04-10 09:01:00,34.3,12.6,23.36,South,173,0.0,3.0,40,0.00,,,0.00,WeatherTracker,2013-04-10 16:01:00,
2013-04-10 09:06:00,35.2,13.4,23.36,ESE,105,3.0,4.0,40,0.00,,,0.00,WeatherTracker,2013-04-10 16:06:00,
2013-04-10 09:16:00,36.3,12.6,23.36,South,178,3.0,4.0,37,0.00,,,0.00,WeatherTracker,2013-04-10 16:16:00,
2013-04-10 09:26:00,36.7,12.3,23.36,ENE,71,0.0,3.0,36,0.00,,,0.00,WeatherTracker,2013-04-10 16:26:00,
2013-04-10 09:31:00,37.0,12.0,23.39,SSE,166,3.0,3.0,35,0.00,,,0.00,WeatherTracker,2013-04-10 16:31:00,
2013-04-10 09:41:00,37.4,11.6,23.39,ENE,58,3.0,4.0,34,0.00,,,0.00,WeatherTracker,2013-04-10 16:41:00,
2013-04-10 09:51:00,38.1,11.6,23.39,SSE,150,3.0,4.0,33,0.00,,,0.00,WeatherTracker,2013-04-10 16:51:00,
2013-04-10 09:56:00,38.7,12.1,23.39,South,178,0.0,2.0,33,0.00,,,0.00,WeatherTracker,2013-04-10 16:56:00,
2013-04-10 10:02:00,39.2,11.8,23.39,NE,41,0.0,2.0,32,0.00,,,0.00,WeatherTracker,2013-04-10 17:02:00,
2013-04-10 10:11:00,39.2,11.1,23.39,ESE,102,0.0,3.0,31,0.00,,,0.00,WeatherTracker,2013-04-10 17:11:00,
2013-04-10 10:16:00,40.1,11.9,23.39,ESE,106,3.0,0.0,31,0.00,,,0.00,WeatherTracker,2013-04-10 17:16:00,
2013-04-10 10:21:00,40.6,11.7,23.39,ENE,74,0.0,3.0,30,0.00,,,0.00,WeatherTracker,2013-04-10 17:21:00,
2013-04-10 10:31:00,41.2,11.4,23.39,NW,317,2.0,3.0,29,0.00,,,0.00,WeatherTracker,2013-04-10 17:31:00,
2013-04-10 10:36:00,41.5,11.7,23.39,ESE,115,3.0,3.0,29,0.00,,,0.00,WeatherTracker,2013-04-10 17:36:00,
2013-04-10 10:41:00,42.3,12.3,23.39,SE,126,0.0,4.0,29,0.00,,,0.00,WeatherTracker,2013-04-10 17:41:00,
2013-04-10 10:46:00,43.0,12.9,23.39,NE,50,0.0,0.0,29,0.00,,,0.00,WeatherTracker,2013-04-10 17:46:00,
2013-04-10 10:51:00,43.3,13.2,23.39,East,99,0.0,0.0,29,0.00,,,0.00,WeatherTracker,2013-04-10 17:51:00,
2013-04-10 10:56:00,44.6,13.5,23.39,ESE,102,0.0,0.0,28,0.00,,,0.00,WeatherTracker,2013-04-10 17:56:00,
2013-04-10 11:06:00,46.2,14.9,23.36,North,357,0.0,0.0,28,0.00,,,0.00,WeatherTracker,2013-04-10 18:06:00,
2013-04-10 11:16:00,46.0,14.8,23.36,SSE,157,3.0,5.0,28,0.00,,,0.00,WeatherTracker,2013-04-10 18:16:00,
2013-04-10 11:21:00,46.8,14.6,23.36,SE,131,3.0,3.0,27,0.00,,,0.00,WeatherTracker,2013-04-10 18:21:00,
2013-04-10 11:26:00,48.0,15.7,23.36,NE,46,3.0,3.0,27,0.00,,,0.00,WeatherTracker,2013-04-10 18:26:00,
2013-04-10 11:36:00,47.7,12.7,23.36,WNW,284,0.0,3.0,24,0.00,,,0.00,WeatherTracker,2013-04-10 18:36:00,
2013-04-10 11:41:00,47.8,10.9,23.36,NW,311,0.0,3.0,22,0.00,,,0.00,WeatherTracker,2013-04-10 18:41:00,
2013-04-10 11:51:00,48.0,11.0,23.39,NW,323,0.0,5.0,22,0.00,,,0.00,WeatherTracker,2013-04-10 18:51:00,
2013-04-10 11:56:00,48.2,10.1,23.39,NE,49,4.0,6.0,21,0.00,,,0.00,WeatherTracker,2013-04-10 18:56:00,
2013-04-10 12:06:00,47.8,10.9,23.36,NNW,332,3.0,0.0,22,0.00,,,0.00,WeatherTracker,2013-04-10 19:06:00,
2013-04-10 12:16:00,48.0,13.0,23.36,NE,56,4.0,8.0,24,0.00,,,0.00,WeatherTracker,2013-04-10 19:16:00,
2013-04-10 12:26:00,48.7,10.6,23.36,NNW,333,3.0,6.0,21,0.00,,,0.00,WeatherTracker,2013-04-10 19:26:00,
2013-04-10 12:36:00,48.4,8.1,23.36,WSW,245,3.0,4.0,19,0.00,,,0.00,WeatherTracker,2013-04-10 19:36:00,
2013-04-10 12:46:00,47.5,10.6,23.36,SSE,159,4.0,4.0,22,0.00,,,0.00,WeatherTracker,2013-04-10 19:46:00,
2013-04-10 12:51:00,48.0,7.8,23.36,South,174,0.0,0.0,19,0.00,,,0.00,WeatherTracker,2013-04-10 19:51:00,
2013-04-10 12:56:00,48.9,10.7,23.36,South,182,0.0,4.0,21,0.00,,,0.00,WeatherTracker,2013-04-10 19:56:00,
2013-04-10 13:06:00,50.2,11.8,23.36,SSE,149,3.0,4.0,21,0.00,,,0.00,WeatherTracker,2013-04-10 20:06:00,
2013-04-10 13:11:00,50.9,10.1,23.36,ESE,116,3.0,3.0,19,0.00,,,0.00,WeatherTracker,2013-04-10 20:11:00,
2013-04-10 13:21:00,50.5,9.8,23.36,NE,41,2.0,0.0,19,0.00,,,0.00,WeatherTracker,2013-04-10 20:21:00,
2013-04-10 13:31:00,50.2,9.5,23.36,ESE,111,0.0,3.0,19,0.00,,,0.00,WeatherTracker,2013-04-10 20:31:00,
2013-04-10 13:36:00,50.2,9.5,23.36,ENE,65,0.0,0.0,19,0.00,,,0.00,WeatherTracker,2013-04-10 20:36:00,
2013-04-10 13:46:00,50.2,9.5,23.36,ESE,121,4.0,5.0,19,0.00,,,0.00,WeatherTracker,2013-04-10 20:46:00,
2013-04-10 13:51:00,49.6,9.1,23.36,NE,50,0.0,3.0,19,0.00,,,0.00,WeatherTracker,2013-04-10 20:51:00,
2013-04-10 13:56:00,50.0,9.4,23.36,South,186,3.0,4.0,19,0.00,,,0.00,WeatherTracker,2013-04-10 20:56:00,
2013-04-10 14:01:00,50.0,5.6,23.36,ESE,122,0.0,0.0,16,0.00,,,0.00,WeatherTracker,2013-04-10 21:01:00,
2013-04-10 14:11:00,50.0,5.6,23.36,East,92,3.0,3.0,16,0.00,,,0.00,WeatherTracker,2013-04-10 21:11:00,
2013-04-10 14:21:00,50.0,5.6,23.36,ESE,112,0.0,3.0,16,0.00,,,0.00,WeatherTracker,2013-04-10 21:21:00,
2013-04-10 14:26:00,49.6,2.4,23.36,ENE,61,4.0,4.0,14,0.00,,,0.00,WeatherTracker,2013-04-10 21:26:00,
2013-04-10 14:36:00,49.5,2.3,23.36,West,274,3.0,0.0,14,0.00,,,0.00,WeatherTracker,2013-04-10 21:36:00,
2013-04-10 14:46:00,49.3,2.1,23.36,NNW,338,5.0,6.0,14,0.00,,,0.00,WeatherTracker,2013-04-10 21:46:00,
2013-04-10 14:51:00,49.3,5.0,23.36,East,87,0.0,0.0,16,0.00,,,0.00,WeatherTracker,2013-04-10 21:51:00,
2013-04-10 14:56:00,49.1,2.0,23.36,SW,230,3.0,3.0,14,0.00,,,0.00,WeatherTracker,2013-04-10 21:56:00,
2013-04-10 15:01:00,49.1,2.0,23.36,NW,323,0.0,3.0,14,0.00,,,0.00,WeatherTracker,2013-04-10 22:01:00,
2013-04-10 15:06:00,49.1,2.0,23.36,WNW,293,2.0,2.0,14,0.00,,,0.00,WeatherTracker,2013-04-10 22:06:00,
2013-04-10 15:16:00,48.9,1.9,23.36,WNW,295,4.0,4.0,14,0.00,,,0.00,WeatherTracker,2013-04-10 22:16:00,
2013-04-10 15:21:00,49.1,2.0,23.36,ENE,65,0.0,4.0,14,0.00,,,0.00,WeatherTracker,2013-04-10 22:21:00,
2013-04-10 15:31:00,48.9,1.9,23.36,North,8,0.0,2.0,14,0.00,,,0.00,WeatherTracker,2013-04-10 22:31:00,
2013-04-10 15:41:00,48.4,1.4,23.36,North,353,2.0,3.0,14,0.00,,,0.00,WeatherTracker,2013-04-10 22:41:00,
2013-04-10 15:51:00,48.6,4.4,23.36,North,357,3.0,0.0,16,0.00,,,0.00,WeatherTracker,2013-04-10 22:51:00,
2013-04-10 15:56:00,48.6,1.6,23.36,WNW,288,4.0,4.0,14,0.00,,,0.00,WeatherTracker,2013-04-10 22:56:00,
2013-04-10 16:01:00,48.4,1.4,23.36,North,5,0.0,4.0,14,0.00,,,0.00,WeatherTracker,2013-04-10 23:01:00,
2013-04-10 16:07:00,48.4,1.4,23.36,North,349,3.0,4.0,14,0.00,,,0.00,WeatherTracker,2013-04-10 23:07:00,
2013-04-10 16:16:00,48.4,1.4,23.36,NNE,25,2.0,3.0,14,0.00,,,0.00,WeatherTracker,2013-04-10 23:16:00,
2013-04-10 16:26:00,48.4,1.4,23.36,NNW,327,0.0,3.0,14,0.00,,,0.00,WeatherTracker,2013-04-10 23:26:00,
2013-04-10 16:36:00,48.2,1.3,23.36,ENE,65,0.0,0.0,14,0.00,,,0.00,WeatherTracker,2013-04-10 23:36:00,
2013-04-10 16:41:00,48.2,1.3,23.36,North,2,2.0,3.0,14,0.00,,,0.00,WeatherTracker,2013-04-10 23:41:00,
2013-04-10 16:51:00,48.2,1.3,23.33,ENE,65,3.0,3.0,14,0.00,,,0.00,WeatherTracker,2013-04-10 23:51:00,
2013-04-10 17:01:00,48.0,1.1,23.33,NE,40,0.0,2.0,14,0.00,,,0.00,WeatherTracker,2013-04-11 00:01:00,
2013-04-10 17:06:00,48.0,1.1,23.33,NNE,27,0.0,0.0,14,0.00,,,0.00,WeatherTracker,2013-04-11 00:06:00,
2013-04-10 17:16:00,47.8,1.0,23.36,NNE,15,0.0,0.0,14,0.00,,,0.00,WeatherTracker,2013-04-11 00:16:00,
2013-04-10 17:21:00,47.7,0.8,23.36,NE,46,0.0,0.0,14,0.00,,,0.00,WeatherTracker,2013-04-11 00:21:00,
2013-04-10 17:31:00,47.5,0.7,23.36,North,357,0.0,0.0,14,0.00,,,0.00,WeatherTracker,2013-04-11 00:31:00,
2013-04-10 17:36:00,47.5,0.7,23.36,NW,309,0.0,0.0,14,0.00,,,0.00,WeatherTracker,2013-04-11 00:36:00,
2013-04-10 17:41:00,47.3,0.6,23.36,ESE,122,0.0,3.0,14,0.00,,,0.00,WeatherTracker,2013-04-11 00:41:00,
2013-04-10 17:51:00,47.3,4.7,23.36,ESE,120,0.0,0.0,17,0.00,,,0.00,WeatherTracker,2013-04-11 00:51:00,
2013-04-10 18:01:00,46.9,4.4,23.36,ESE,114,0.0,0.0,17,0.00,,,0.00,WeatherTracker,2013-04-11 01:01:00,
2013-04-10 18:06:00,46.6,4.1,23.36,ESE,109,2.0,2.0,17,0.00,,,0.00,WeatherTracker,2013-04-11 01:06:00,
2013-04-10 18:11:00,46.4,4.0,23.36,East,99,0.0,4.0,17,0.00,,,0.00,WeatherTracker,2013-04-11 01:11:00,
2013-04-10 18:21:00,45.9,3.6,23.36,NNE,23,0.0,0.0,17,0.00,,,0.00,WeatherTracker,2013-04-11 01:21:00,
2013-04-10 18:26:00,45.7,3.4,23.36,SSE,166,0.0,4.0,17,0.00,,,0.00,WeatherTracker,2013-04-11 01:26:00,
2013-04-10 18:36:00,45.1,3.0,23.36,SE,129,0.0,0.0,17,0.00,,,0.00,WeatherTracker,2013-04-11 01:36:00,
2013-04-10 18:46:00,44.8,2.7,23.36,ESE,105,0.0,0.0,17,0.00,,,0.00,WeatherTracker,2013-04-11 01:46:00,
2013-04-10 18:56:00,44.2,3.5,23.36,ESE,110,0.0,0.0,18,0.00,,,0.00,WeatherTracker,2013-04-11 01:56:00,
2013-04-10 19:01:00,43.7,3.0,23.36,SE,131,0.0,0.0,18,0.00,,,0.00,WeatherTracker,2013-04-11 02:01:00,
2013-04-10 19:11:00,43.0,4.7,23.36,SE,132,0.0,0.0,20,0.00,,,0.00,WeatherTracker,2013-04-11 02:11:00,
2013-04-10 19:21:00,42.4,5.3,23.36,SE,133,0.0,0.0,21,0.00,,,0.00,WeatherTracker,2013-04-11 02:21:00,
2013-04-10 19:31:00,41.9,4.8,23.39,SSE,161,0.0,0.0,21,0.00,,,0.00,WeatherTracker,2013-04-11 02:31:00,
2013-04-10 19:36:00,41.7,4.7,23.39,SSE,168,0.0,0.0,21,0.00,,,0.00,WeatherTracker,2013-04-11 02:36:00,
2013-04-10 19:46:00,41.2,4.2,23.39,SSE,168,0.0,0.0,21,0.00,,,0.00,WeatherTracker,2013-04-11 02:46:00,
2013-04-10 19:56:00,40.8,3.9,23.39,WSW,248,0.0,0.0,21,0.00,,,0.00,WeatherTracker,2013-04-11 02:56:00,
2013-04-10 20:01:00,40.6,3.8,23.39,WSW,248,0.0,0.0,21,0.00,,,0.00,WeatherTracker,2013-04-11 03:01:00,
2013-04-10 20:11:00,40.3,3.5,23.39,WSW,248,0.0,0.0,21,0.00,,,0.00,WeatherTracker,2013-04-11 03:11:00,
2013-04-10 20:16:00,39.9,3.2,23.39,WSW,248,0.0,0.0,21,0.00,,,0.00,WeatherTracker,2013-04-11 03:16:00,
2013-04-10 20:21:00,39.9,3.2,23.39,WSW,248,0.0,0.0,21,0.00,,,0.00,WeatherTracker,2013-04-11 03:21:00,
2013-04-10 20:31:00,39.7,3.0,23.39,WSW,248,0.0,0.0,21,0.00,,,0.00,WeatherTracker,2013-04-11 03:31:00,
2013-04-10 20:41:00,39.4,4.7,23.39,WSW,243,0.0,0.0,23,0.00,,,0.00,WeatherTracker,2013-04-11 03:41:00,
2013-04-10 20:51:00,39.2,4.6,23.39,SW,227,0.0,0.0,23,0.00,,,0.00,WeatherTracker,2013-04-11 03:51:00,
2013-04-10 20:56:00,39.2,4.6,23.39,SW,227,0.0,0.0,23,0.00,,,0.00,WeatherTracker,2013-04-11 03:56:00,
2013-04-10 21:01:00,39.2,4.6,23.39,SW,227,0.0,0.0,23,0.00,,,0.00,WeatherTracker,2013-04-11 04:01:00,
2013-04-10 21:06:00,39.0,5.3,23.39,SW,227,0.0,0.0,24,0.00,,,0.00,WeatherTracker,2013-04-11 04:06:00,
2013-04-10 21:11:00,39.0,5.3,23.39,SW,227,0.0,0.0,24,0.00,,,0.00,WeatherTracker,2013-04-11 04:11:00,
2013-04-10 21:16:00,38.8,5.2,23.39,SW,227,0.0,0.0,24,0.00,,,0.00,WeatherTracker,2013-04-11 04:16:00,
2013-04-10 21:21:00,38.5,6.6,23.39,SW,227,0.0,0.0,26,0.00,,,0.00,WeatherTracker,2013-04-11 04:21:00,
2013-04-10 21:31:00,37.4,3.9,23.39,WNW,287,0.0,0.0,24,0.00,,,0.00,WeatherTracker,2013-04-11 04:31:00,
2013-04-10 21:41:00,37.4,5.7,23.39,NW,318,0.0,0.0,26,0.00,,,0.00,WeatherTracker,2013-04-11 04:41:00,
2013-04-10 21:46:00,37.2,6.4,23.39,WNW,303,0.0,0.0,27,0.00,,,0.00,WeatherTracker,2013-04-11 04:46:00,
2013-04-10 21:56:00,37.6,5.8,23.39,WNW,303,0.0,0.0,26,0.00,,,0.00,WeatherTracker,2013-04-11 04:56:00,
2013-04-10 22:06:00,37.4,5.7,23.39,WNW,303,0.0,0.0,26,0.00,,,0.00,WeatherTracker,2013-04-11 05:06:00,
2013-04-10 22:16:00,37.2,7.9,23.39,WNW,303,0.0,0.0,29,0.00,,,0.00,WeatherTracker,2013-04-11 05:16:00,
2013-04-10 22:26:00,36.9,7.6,23.39,WNW,303,0.0,0.0,29,0.00,,,0.00,WeatherTracker,2013-04-11 05:26:00,
2013-04-10 22:31:00,36.7,7.5,23.39,West,262,0.0,0.0,29,0.00,,,0.00,WeatherTracker,2013-04-11 05:31:00,
2013-04-10 22:41:00,36.3,7.1,23.39,South,169,0.0,0.0,29,0.00,,,0.00,WeatherTracker,2013-04-11 05:41:00,
2013-04-10 22:51:00,35.8,7.4,23.39,SSE,168,0.0,0.0,30,0.00,,,0.00,WeatherTracker,2013-04-11 05:51:00,
2013-04-10 23:01:00,35.6,7.3,23.39,South,172,0.0,0.0,30,0.00,,,0.00,WeatherTracker,2013-04-11 06:01:00,
2013-04-10 23:06:00,35.6,7.3,23.39,South,172,0.0,0.0,30,0.00,,,0.00,WeatherTracker,2013-04-11 06:06:00,
2013-04-10 23:16:00,35.4,7.8,23.39,South,172,0.0,0.0,31,0.00,,,0.00,WeatherTracker,2013-04-11 06:16:00,
2013-04-10 23:22:00,35.2,7.7,23.39,South,172,0.0,0.0,31,0.00,,,0.00,WeatherTracker,2013-04-11 06:22:00,
2013-04-10 23:31:00,35.1,7.5,23.39,South,182,0.0,0.0,31,0.00,,,0.00,WeatherTracker,2013-04-11 06:31:00,
2013-04-10 23:41:00,35.1,7.5,23.39,South,191,0.0,0.0,31,0.00,,,0.00,WeatherTracker,2013-04-11 06:41:00,
2013-04-10 23:51:00,35.8,8.1,23.39,North,353,0.0,0.0,31,0.00,,,0.00,WeatherTracker,2013-04-11 06:51:00,